Probability
0 0 0 0 0 0 0 0 0 0 0 0 0 0 0 0 0 0 0 0 0 1 2 3 2 1 1 1 0 0 0 0 0 0 0 0 0 0 0 0 0 0 0 0 0 0 0 0 0
0 0 0 0 0 0 0 0 0 0 0 0 0 0 0 0 0 0 0 0 0 1 2 2 1 1 3 2 1 0 0 0 0 0 0 0 0 0 1 1 0 0 0 0 0 0 0 0 0
0 0 0 0 0 0 0 0 0 0 0 0 0 0 0 0 0 0 0 0 0 0 1 1 1 2 3 4 3 1 0 0 0 0 0 0 0 1 2 2 1 0 0 0 0 0 0 0 0
0 0 0 0 0 0 0 0 0 0 0 0 0 0 0 0 0 0 0 0 0 0 0 1 2 2 3 4 5 3 2 1 0 0 1 1 1 2 3 3 2 1 0 0 0 0 0 0 0
0 0 0 0 0 0 0 0 0 0 0 0 0 0 0 0 0 0 0 0 0 0 0 1 1 1 1 3 6 6 5 3 1 1 2 2 2 3 3 3 2 2 1 1 1 0 0 0 0
0 0 0 0 0 0 0 0 0 0 0 0 0 0 0 0 0 0 0 0 0 0 0 0 0 0 1 3 6 7 7 5 4 3 3 3 3 3 3 1 1 2 2 2 2 1 0 0 0
0 0 0 0 0 0 0 0 0 0 0 0 0 0 0 1 1 0 0 0 0 0 0 0 0 0 1 3 6 7 7 6 5 4 4 4 4 3 2 1 0 1 1 1 3 3 1 0 0
0 0 0 0 0 0 0 0 0 0 0 0 0 0 1 3 3 1 0 1 1 1 0 0 0 0 0 2 5 6 6 6 6 6 6 5 4 3 2 1 0 0 0 1 2 3 2 1 0
0 0 0 0 0 0 0 0 0 0 0 0 0 0 2 5 5 2 1 2 2 2 1 1 1 1 1 2 4 6 7 7 7 6 6 5 4 3 2 1 1 0 0 0 1 1 1 1 0
0 0 0 0 0 0 0 0 0 0 0 0 0 1 2 4 4 3 2 3 4 3 3 2 3 3 3 2 4 6 7 7 7 6 5 4 3 2 2 3 4 2 0 0 0 0 0 0 0
0 0 0 0 0 0 0 0 0 0 0 0 0 1 3 3 3 3 2 3 4 4 3 3 4 5 5 5 5 6 7 7 8 8 6 4 3 2 3 5 6 5 3 2 1 1 0 0 0
0 0 0 0 0 0 0 0 0 0 0 0 0 2 4 4 4 3 3 3 4 4 4 4 5 7 8 8 8 7 7 7 9 10 9 6 4 4 6 7 8 8 7 6 4 2 0 0 1
0 0 1 1 0 0 0 0 0 0 0 0 0 3 5 6 5 3 3 3 3 4 5 6 7 9 11 12 11 9 7 8 10 12 11 9 6 6 7 9 10 9 9 8 7 4 3 3 3
0 1 2 1 0 0 0 0 0 0 0 0 1 3 5 5 4 3 2 3 4 5 7 8 10 12 13 13 12 10 8 9 11 13 12 10 8 8 9 11 11 10 9 9 8 7 8 8 6
0 1 2 1 0 0 0 0 0 0 0 0 1 3 4 4 3 2 3 4 6 6 8 9 11 13 15 14 13 11 10 10 11 13 12 11 11 12 12 12 11 10 9 9 8 9 9 9 7
0 1 1 1 0 0 0 0 0 0 0 0 1 2 3 3 3 3 3 6 7 8 10 12 13 15 16 16 15 13 11 10 10 11 11 11 12 13 13 12 12 11 10 9 8 7 7 6 6
0 0 0 0 0 0 0 0 0 0 0 0 1 2 3 3 3 4 6 8 10 11 13 15 16 17 19 19 17 15 12 10 9 9 10 10 11 12 12 12 12 11 11 10 8 7 7 6 6
0 1 1 1 0 0 0 1 2 1 0 0 1 2 2 3 5 8 11 13 14 15 16 18 19 20 21 21 18 15 13 11 9 10 11 11 11 10 10 12 12 11 10 10 8 8 8 7 6
1 1 2 2 1 0 1 2 3 2 1 1 1 2 3 4 6 11 16 18 17 18 19 20 21 22 23 22 19 17 15 12 11 13 13 12 10 10 10 10 11 11 10 9 8 6 5 6 8
0 1 3 3 1 0 1 2 2 3 3 3 3 4 5 5 7 11 17 19 17 18 21 22 23 24 24 23 21 19 18 15 14 14 13 10 9 9 9 10 11 11 9 7 6 5 4 5 7
0 1 2 3 2 1 0 1 1 2 4 5 5 7 7 7 9 13 17 17 16 17 20 23 24 24 24 24 22 20 19 17 16 14 12 10 7 7 8 9 9 9 7 6 5 5 4 5 7
1 0 1 2 2 1 0 0 0 1 3 4 5 7 9 10 12 16 18 18 16 16 20 24 24 24 25 24 22 21 19 18 17 16 14 11 8 6 6 6 6 6 5 5 4 4 5 7 8
2 1 0 1 1 0 0 0 0 0 2 3 4 7 10 12 15 18 20 19 16 16 19 22 23 24 26 26 23 22 19 17 18 19 18 14 10 8 6 6 6 5 4 4 4 5 7 8 9
3 2 1 1 0 0 0 0 1 1 2 4 5 7 10 13 15 18 20 19 17 17 19 20 21 24 27 27 24 20 19 18 18 20 19 16 13 10 8 8 9 8 5 4 6 7 8 8 9
3 3 3 2 1 0 0 1 3 3 4 5 6 6 7 9 12 15 17 17 16 18 19 21 22 25 27 26 23 20 20 21 19 17 16 15 13 10 9 8 9 8 6 5 6 7 8 8 7
1 2 2 2 1 0 0 2 5 5 3 4 5 5 5 5 8 12 12 12 13 15 17 20 23 24 24 23 22 21 22 21 18 15 14 12 12 12 10 8 7 6 6 6 6 7 7 7 6
0 1 1 1 0 0 1 3 6 5 3 2 3 5 5 5 8 9 9 8 9 11 13 17 21 22 21 22 22 22 21 19 17 15 13 13 14 15 14 11 8 7 7 8 9 9 9 9 8
0 0 0 0 0 0 1 3 4 5 4 3 3 4 5 6 8 9 7 6 7 8 10 13 15 17 18 19 21 21 20 18 17 15 14 15 17 18 18 16 12 9 9 11 12 12 12 12 11
0 0 0 0 0 0 0 1 3 5 7 5 4 5 6 7 9 9 8 6 6 7 8 9 10 11 14 16 19 20 19 19 18 16 15 15 16 17 17 17 14 11 9 10 10 10 10 11 12
0 0 0 0 0 0 0 1 3 6 7 7 6 6 8 9 10 10 8 6 6 6 7 7 7 9 13 15 17 19 19 18 19 17 15 14 14 13 14 15 13 10 9 9 7 6 7 8 10
Wind_Speed
9 8 7 6 7 2 7 7 6 6 5 6 5 3 5 7 7 7 6 7 7 8 10 10 6 6 6 6 6 6 6 6 6 6 6 6 6 6 6 6 6 6 6 6 7 6 7 6 6
6 6 7 7 4 4 8 7 7 7 6 4 4 3 4 6 7 7 7 7 8 9 9 8 7 6 6 6 6 5 6 6 6 6 6 6 6 6 6 6 6 6 6 6 7 7 7 7 6
6 7 7 4 1 4 8 6 7 6 4 2 3 4 4 6 6 6 7 9 9 8 8 10 7 6 6 6 5 5 5 6 6 6 6 6 6 6 6 6 6 5 5 6 6 6 6 6 6
6 7 6 3 4 6 6 6 4 4 4 3 2 5 6 6 4 6 10 9 9 9 8 11 6 6 6 5 5 5 5 5 5 5 5 5 5 5 5 5 5 5 5 5 5 5 5 4 4
7 6 5 3 4 5 4 4 2 2 3 3 3 6 8 6 6 9 10 10 9 8 8 11 7 6 5 5 5 5 5 5 5 5 5 5 5 4 4 4 4 4 4 4 4 4 4 4 4
6 5 4 4 6 5 4 2 2 3 5 4 4 5 7 7 7 9 10 9 8 8 8 10 9 6 5 5 4 4 4 4 4 4 4 4 4 4 4 4 4 4 4 4 4 4 3 3 3
7 4 3 3 5 6 4 2 1 3 4 4 2 4 8 8 8 9 9 8 8 7 7 8 8 8 7 5 4 4 4 4 4 4 4 3 3 3 3 4 4 3 3 3 3 3 3 2 2
6 4 4 4 5 5 5 2 2 1 4 4 1 2 6 9 9 9 8 8 8 7 6 6 6 6 6 7 6 4 3 4 4 4 3 2 4 4 3 5 4 3 2 2 3 3 3 2 2
6 7 5 4 4 5 5 3 3 2 4 4 3 5 7 12 11 10 8 7 7 6 5 5 5 5 4 4 6 5 5 4 4 4 3 3 2 3 4 4 4 3 2 2 1 2 2 2 4
7 6 3 1 1 3 3 2 2 4 5 5 6 7 10 12 11 10 9 8 8 7 6 5 5 5 4 3 4 3 3 4 2 2 2 2 1 0 1 6 4 3 2 3 3 3 4 5 3
5 4 1 2 1 1 2 2 2 3 3 4 5 8 11 11 10 9 8 8 7 7 6 5 5 4 4 3 3 2 1 2 2 2 1 0 0 1 1 2 4 3 4 2 3 4 2 1 1
5 2 2 2 2 2 2 2 3 4 2 1 4 8 10 10 9 8 8 8 7 7 7 5 5 4 3 2 2 2 1 1 1 2 1 0 0 0 0 1 0 1 1 0 1 1 0 1 1
7 3 3 3 3 3 3 4 4 4 2 2 5 8 10 10 9 8 7 7 7 7 7 6 5 4 3 2 2 1 1 1 1 1 1 1 1 1 1 0 0 1 0 1 1 1 1 1 1
3 3 3 4 4 4 5 5 5 4 4 5 7 8 9 8 8 8 7 7 8 8 7 6 6 6 5 4 3 2 2 1 1 1 1 1 1 1 1 1 1 1 1 1 2 1 1 1 0
4 6 6 5 5 5 5 6 6 5 5 6 7 7 7 7 7 8 7 7 7 7 7 7 7 6 6 4 4 3 2 2 1 1 1 1 1 1 2 1 1 1 1 1 1 1 1 1 1
8 9 9 7 5 5 9 7 4 4 6 7 7 7 7 7 7 7 7 7 7 7 7 7 5 6 6 4 3 2 2 2 1 1 1 1 2 2 2 1 1 1 1 1 1 1 1 1 1
10 10 8 7 6 5 8 5 4 4 6 6 6 7 7 7 7 6 6 7 7 7 7 7 6 6 6 5 4 3 2 2 2 1 1 1 2 2 2 1 0 2 1 1 2 0 1 1 1
9 9 8 7 6 6 8 5 4 5 6 6 6 6 7 7 6 6 6 6 6 7 7 6 6 6 6 5 4 3 2 2 2 2 1 1 2 2 2 1 0 2 1 1 1 1 1 1 1
6 7 7 6 3 6 7 6 5 5 6 6 6 6 7 6 6 6 6 6 6 6 6 6 6 5 5 4 4 3 3 2 2 1 1 1 2 2 2 2 0 1 1 1 1 2 2 2 1
10 10 8 6 4 6 6 7 5 5 5 5 5 6 6 6 6 6 6 6 6 6 6 6 6 6 6 4 3 2 2 2 2 1 1 1 1 1 1 1 1 1 1 1 2 2 2 2 2
12 12 9 6 4 7 8 10 9 6 6 5 5 5 5 5 5 6 7 7 6 6 6 5 5 5 5 4 4 3 3 2 2 2 1 1 1 1 2 2 2 1 2 1 2 3 4 3 3
12 9 8 8 9 7 8 9 7 7 7 6 5 5 5 5 5 6 7 6 6 6 5 5 5 5 4 5 4 4 3 2 2 1 1 1 1 1 1 1 2 2 2 1 3 2 3 4 4
8 5 8 9 10 10 9 10 5 7 7 6 5 4 4 4 4 5 5 5 5 5 5 5 5 4 4 4 4 4 3 2 2 2 2 2 1 1 1 1 2 2 3 2 3 3 4 4 5
5 6 8 9 10 13 11 10 6 4 4 3 4 4 3 4 4 4 4 4 4 5 5 6 5 4 4 4 3 3 3 2 2 2 2 2 1 1 1 2 2 3 3 3 3 3 4 4 5
11 10 8 10 10 10 7 9 4 2 1 1 2 3 4 4 5 5 5 5 5 5 5 5 6 4 4 4 3 3 2 2 2 2 2 2 1 1 1 2 3 3 3 3 3 3 4 4 4
13 14 10 8 9 7 8 9 3 3 3 2 2 3 4 5 5 5 5 5 5 5 5 5 5 4 4 3 3 2 2 1 1 1 1 1 1 1 1 2 3 3 4 3 3 3 3 3 4
12 13 11 12 11 9 7 5 4 5 5 4 4 4 5 5 5 5 5 5 4 5 4 4 5 5 4 3 3 3 2 1 1 1 1 1 1 1 1 2 2 3 3 3 3 2 3 3 4
11 9 8 11 10 11 10 10 6 7 6 6 5 5 5 5 6 5 5 4 4 4 4 4 5 4 4 4 3 2 2 2 2 1 1 0 1 1 1 2 2 3 3 3 3 3 3 4 4
10 12 11 10 11 11 10 5 1 5 5 6 5 5 6 6 6 6 5 4 4 4 4 4 4 5 4 4 3 3 2 2 2 1 1 1 1 1 1 1 2 2 3 3 3 4 4 4 4
10 11 12 11 10 11 11 4 3 2 3 4 4 4 5 5 5 5 5 4 4 4 3 3 4 4 4 4 4 3 3 2 2 2 1 1 1 1 1 2 2 3 3 3 3 4 4 4 4
Wind_Direction
189 201 225 238 236 177 82 79 69 80 75 61 54 36 37 28 17 57 91 121 125 127 123 130 117 119 116 111 107 106 107 103 104 107 104 101 101 100 100 100 97 95 98 104 103 97 96 94 94
199 211 233 242 255 119 89 78 77 63 72 85 85 65 65 65 54 87 116 122 132 128 128 123 118 121 119 114 110 107 109 104 103 106 106 104 103 100 98 100 97 94 96 99 100 96 96 89 89
212 234 260 252 23 61 87 78 76 82 90 83 86 59 45 59 83 101 115 135 135 129 130 117 124 121 119 115 112 109 108 106 104 105 105 102 99 98 99 103 101 97 97 100 100 99 99 96 100
228 224 236 241 100 68 74 83 85 110 106 79 92 94 83 59 70 105 126 139 137 138 137 120 127 122 120 118 113 110 107 106 104 105 105 102 100 98 102 105 105 100 102 104 106 105 100 97 97
240 248 217 164 110 95 82 67 61 93 93 96 94 95 96 81 92 117 134 142 142 139 134 127 128 125 123 120 115 111 109 107 104 103 102 101 99 102 104 110 107 104 105 107 105 104 103 100 97
236 238 217 157 124 118 105 88 99 97 103 106 110 105 93 107 121 131 141 144 141 138 135 127 137 135 131 124 116 110 107 103 98 97 100 104 102 101 105 117 111 105 103 103 98 98 105 106 104
262 248 215 153 137 133 107 90 79 94 109 97 100 105 112 127 128 140 142 142 140 140 139 139 148 150 149 135 122 112 107 102 98 97 98 105 115 112 114 127 118 111 104 102 101 94 99 110 109
277 252 198 174 161 129 119 111 73 49 91 95 133 104 116 132 142 145 142 143 141 143 147 145 148 152 163 155 142 133 122 116 120 114 108 131 152 150 146 150 123 113 106 105 102 97 91 100 117
254 242 199 178 167 133 133 142 109 103 126 125 95 65 97 133 150 152 151 150 147 148 153 151 149 154 168 158 142 161 158 145 169 154 148 205 189 160 165 119 118 128 127 130 123 130 123 152 152
241 237 190 131 141 134 147 164 152 175 168 152 135 111 124 146 157 162 161 160 159 160 164 158 158 158 167 160 146 176 172 153 189 138 162 197 131 72 114 123 139 152 168 182 183 205 205 226 170
240 247 134 162 157 180 184 192 211 218 193 172 161 148 151 160 166 171 170 166 164 161 163 162 163 167 171 160 162 170 170 152 178 151 182 126 242 165 184 159 162 176 190 201 168 202 213 213 49
229 234 241 189 170 219 222 218 227 242 247 131 156 155 162 172 175 178 176 170 167 167 169 169 161 167 183 171 167 182 175 162 169 141 217 188 241 303 329 233 196 199 185 212 278 245 212 223 200
217 212 206 218 216 229 236 235 238 229 238 187 161 164 173 179 179 180 181 177 174 177 176 174 174 173 179 186 213 191 200 190 158 163 160 274 255 275 271 255 265 264 293 236 271 287 260 240 211
198 201 203 210 205 210 217 223 222 225 202 190 178 178 182 185 187 182 183 184 184 182 183 177 184 181 186 188 206 207 210 193 210 173 143 236 272 307 275 235 255 286 290 320 310 307 291 267 284
192 202 202 205 202 196 210 218 216 217 201 199 193 188 188 190 190 191 190 194 190 185 185 188 190 184 193 196 207 210 211 198 206 177 181 235 265 277 275 258 243 298 289 278 275 289 280 251 222
205 213 209 181 196 200 230 226 177 180 200 205 200 192 193 193 197 194 195 198 194 188 183 189 194 187 189 195 209 212 218 213 210 218 203 220 277 283 273 266 269 291 263 261 266 266 274 274 267
209 216 208 179 188 207 230 235 155 179 204 211 206 200 199 194 199 191 195 194 192 187 184 184 192 192 192 190 194 203 195 219 227 226 248 239 262 272 270 266 336 257 245 260 275 344 275 260 268
208 213 208 206 175 220 231 235 194 199 214 218 215 208 205 200 201 191 191 190 187 186 185 186 189 191 194 192 193 201 196 203 216 217 230 281 274 274 281 259 174 261 243 253 280 278 243 249 248
230 226 220 217 202 237 234 236 224 217 223 224 221 214 212 207 195 183 182 180 179 178 180 184 191 186 193 194 203 201 199 206 207 203 172 236 274 271 272 296 202 259 251 271 263 243 211 220 221
224 224 223 212 199 243 242 241 225 227 232 241 236 223 218 213 191 182 180 179 180 179 181 182 186 185 197 192 203 210 219 217 199 191 140 223 263 282 258 291 276 256 257 230 255 244 249 237 215
220 229 232 229 218 228 243 235 216 208 217 225 232 229 218 214 200 188 186 186 184 183 184 182 183 183 191 193 195 187 188 204 181 183 170 181 217 260 310 299 288 260 256 239 249 248 248 254 233
227 224 231 228 234 228 230 255 208 202 205 213 221 222 217 209 203 195 188 188 188 185 175 172 176 179 183 192 198 198 198 205 206 207 173 182 186 224 264 284 272 265 270 265 252 243 260 257 252
242 213 223 229 240 252 232 254 224 195 215 206 207 214 212 202 196 191 186 184 183 177 166 160 164 169 173 191 191 206 216 219 190 181 167 217 184 208 253 261 267 259 263 268 271 264 259 258 262
213 202 212 226 238 242 236 247 241 197 220 206 196 195 190 184 170 165 162 158 164 163 158 154 158 161 167 176 181 201 212 218 201 198 186 211 196 200 228 257 263 258 266 266 261 258 255 262 270
207 216 218 217 221 235 209 237 244 143 172 227 203 180 166 166 158 158 155 153 156 160 159 157 154 156 160 164 167 178 197 206 207 227 205 237 223 217 221 261 264 263 262 264 264 254 263 257 259
209 226 239 244 239 225 199 232 194 134 142 159 165 162 159 163 158 155 152 154 157 156 160 158 154 157 155 155 158 163 181 211 199 210 272 245 269 278 272 263 268 268 266 266 263 261 256 255 255
217 226 248 263 266 263 225 208 191 188 194 185 172 171 167 163 162 156 150 153 155 153 152 154 154 155 157 155 155 154 143 139 155 168 234 277 313 286 270 271 275 272 270 270 264 263 264 263 256
239 234 230 241 250 248 236 226 221 197 205 193 186 183 172 165 160 152 150 147 147 147 147 153 158 159 158 156 158 140 142 152 163 167 112 29 315 305 279 277 278 279 277 268 265 261 259 253 252
207 217 228 239 249 258 253 234 166 197 203 201 192 184 175 172 165 154 149 145 144 149 154 156 158 161 160 152 145 141 144 153 165 165 159 165 262 260 261 280 283 281 279 276 274 276 276 269 262
231 229 225 236 238 246 263 254 98 163 185 196 190 176 168 172 164 153 151 150 152 154 157 160 167 168 167 160 154 149 149 148 164 166 177 179 216 264 294 289 286 285 285 283 278 282 282 277 272